Regional Weather Roundup
Issued by NWS

Home | Current Version | Previous Version | Text Only | Print | Product List | Glossary Off
Versions: 1 2 3 4 5 6 7 8 9 10 11 12 13 14 15 16 17 18 19 20 21 22 23 24 25 26 27 28 29 30 31 32 33 34 35 36 37 38 39 40 41 42 43 44 45 46 47 48 49 50

000
ASUS43 KLOT 240908
RWRIL

ILLINOIS REGIONAL WEATHER ROUNDUP
NATIONAL WEATHER SERVICE CHICAGO/ROMEOVILLE IL
300 AM CST TUE JAN 24 2017

NOTE: "FAIR" INDICATES FEW OR NO CLOUDS BELOW 12,000 FEET WITH NO
SIGNIFICANT WEATHER AND/OR OBSTRUCTIONS TO VISIBILITY.

* THESE STATIONS ARE NOT UNDER NWS QUALITY CONTROL. THEY ALSO MAY NOT
  REPORT WEATHER SUCH AS PRECIPITATION OR FOG.

ILZ001-002-007-009-015-016-024-241000-
NORTHWEST ILLINOIS

CITY           SKY/WX    TMP DP  RH WIND       PRES   REMARKS
MOLINE         CLOUDY    35  31  85 CALM      29.86F
STERLING*      CLOUDY    35  34  96 W5        29.86F WCI  31
SAVANNA*       CLOUDY    34  32  93 NW3       29.86F
$$

ILZ003-004-008-010-011-017-018-241000-
NORTH CENTRAL ILLINOIS

CITY           SKY/WX    TMP DP  RH WIND       PRES   REMARKS
ROCKFORD       CLOUDY    37  31  78 NW8       29.87R WCI  31
FREEPORT*      CLOUDY    34  31  87 W5        29.87S WCI  30
ROCHELLE*      CLOUDY    35  33  92 NW7       29.85F WCI  29
DE KALB*       CLOUDY    35  33  92 NW7       29.84F WCI  29
PERU*          CLOUDY    35  33  93 NW7       29.85F FOG     WCI  29
$$

ILZ005-006-012>014-019>023-241000-
NORTHEAST ILLINOIS

CITY           SKY/WX    TMP DP  RH WIND       PRES   REMARKS
CHICAGO-OHARE  CLOUDY    37  34  89 NW10      29.83R WCI  30
CHICAGO-MIDWAY CLOUDY    39  33  79 NW9       29.83R WCI  33
AURORA         CLOUDY    36  34  92 NW6       29.84R WCI  31
LANSING*       CLOUDY    38  35  89 NW6       29.84R WCI  34
JOLIET*        CLOUDY    38  36  90 N8        29.84S WCI  32
WAUKEGAN       CLOUDY    37  34  89 W5        29.82R WCI  33
DUPAGE AIRPORT CLOUDY    37  32  82 NW10      29.83R WCI  30
KANKAKEE*      CLOUDY    38  36  90 CALM      29.84S
WHEELING       CLOUDY    37  34  89 NW8       29.85R WCI  31
MORRIS*        CLOUDY    37  34  91 CALM      29.84S
ROMEOVILLE*    CLOUDY    37  36  97 NW6       29.84R WCI  32
NORTHERLY ISL    N/A     39  33  79 NW12        N/A  WCI  32
$$

LMZ740>746-241000-
SOUTHERN LAKE MICHIGAN

STATION/POSITION SKY/WX   TEMP    WIND        PRES    VSBY  WAVE
                          AIR SEA DIR/SP/G                  HT/PER
                          (F)     (DEG/KT/KT) (MB)    (MI)  (FT/S)
HARRISON CRIB              38     310/ 10/ 11   N/A
BURNHAM HARBOR             38     280/  8/ 10   N/A
CALUMET HARBOR             39     270/  5/  8 1009.6R
BURNS HARBOR               35     330/  8/ 10 1010.5R
MICHIGAN CITY              36     290/ 10/ 11   N/A
$$

ILZ025>027-034>036-040-047-049-050-058-095>099-241000-
WEST-CENTRAL ILLINOIS

CITY           SKY/WX    TMP DP  RH WIND       PRES   REMARKS
QUINCY         CLOUDY    34  29  82 CALM      29.88R
GALESBURG*     CLOUDY    32  32 100 W7        29.87S WCI  26
MACOMB*        CLOUDY    33  32  94 W6        29.90S WCI  28
JACKSONVILLE*  CLOUDY    36  32  85 NW3       29.88S
PITTSFIELD*    CLOUDY    35  32  87 CALM      29.89S
$$

ILZ028>032-037-038-041>044-048-051>054-059>061-241000-
CENTRAL ILLINOIS

CITY           SKY/WX    TMP DP  RH WIND       PRES   REMARKS
PONTIAC        CLOUDY    38  38 100 NW7       29.86R WCI  32
BLOOMINGTON    CLOUDY    37  34  89 W6        29.85S WCI  32
DECATUR        CLOUDY    39  37  92 W8        29.86R WCI  33
PEORIA         CLOUDY    35  33  92 NW3       29.88R
LACON*         CLOUDY    36  34  93 CALM      29.86R
LINCOLN*       CLOUDY    38  36  93 W3        29.87S
SPRINGFIELD    CLOUDY    38  34  85 NW5       29.88R WCI  34
TAYLORVILLE    CLOUDY    37  34  90 W7        29.86F WCI  31
$$

ILZ033-039-045-046-055>057-062-063-241000-
EAST-CENTRAL ILLINOIS

CITY           SKY/WX    TMP DP  RH WIND       PRES   REMARKS
CHAMPAIGN      CLOUDY    39  36  89 NW6       29.84S WCI  35
RANTOUL*       CLOUDY    39  37  93 NW7       29.84S WCI  34
MATTOON        CLOUDY    39  34  82 NW6       29.84R WCI  35
PARIS*         CLOUDY    39  37  92 NW7       29.84S WCI  34
$$

ILZ079-100>102-241000-
SOUTHWEST ILLINOIS

CITY           SKY/WX    TMP DP  RH WIND       PRES   REMARKS
ALTON          CLOUDY    37  32  82 CALM      29.89R
BELLEVILLE     CLOUDY    39  34  83 CALM      29.88R
CAHOKIA*       CLOUDY    40  32  73 CALM      29.89R
SPARTA*        CLOUDY    38  32  80 N3        29.89F
$$

ILZ064>066-069>071-074>076-080>082-084>086-088>090-092>094-241000-
SOUTH-CENTRAL ILLINOIS

CITY           SKY/WX    TMP DP  RH WIND       PRES   REMARKS
CARBONDALE     CLOUDY    39  35  86 N3        29.88F
CAIRO*         CLOUDY    36  34  95 W3        29.89S
EFFINGHAM*     CLOUDY    40  36  86 NW5       29.87F
MARION         CLOUDY    41  36  81 CALM      29.89F
MT. VERNON     CLOUDY    39  34  82 CALM      29.88R
CENTRALIA*     CLOUDY    40  36  85 W3        29.87S
SALEM*         CLOUDY    40  36  83 W5        29.87S
METROPOLIS*    CLOUDY    40  35  80 CALM      29.90R
$$

ILZ067-068-072-073-078-083-087-091-241000-
SOUTHEAST ILLINOIS

CITY           SKY/WX    TMP DP  RH WIND       PRES   REMARKS
LAWRENCEVILLE  CLOUDY    41  36  82 NW8       29.86R
FLORA*         CLOUDY    42  35  78 NW6       29.88R
FAIRFIELD*     CLOUDY    41  35  79 CALM      29.87R
HARRISBURG*    CLOUDY    40  35  82 N5        29.89S
ROBINSON*      CLOUDY    39  34  81 N8        29.86S WCI  34
CARMI*         CLOUDY    40  36  83 W6        29.87S
$$

ABBREVIATIONS USED IN REMARKS
   TC - TEMPERATURE IN CELSIUS
  WCI - WIND CHILL INDEX
   HX - HEAT INDEX
  VSB - VISIBILITY
$$




USA.gov is the U.S. government's official web portal to all federal, state and local government web resources and services.